sat.trackr.live / text

‹ back to catalog

LYNK TOWER 3

NORAD 55046 · 2023-001AP

PAYLOAD ACTIVE UNKNOWN

§ Identity

Operator
Country
US
Launch date
2023-01-03
Launch site
AFETR
Launch vehicle
Mass (kg)
RCS (m²)

External: N2YO · Heavens-Above · Gunter

§ Orbital elements

Epoch: 2026-09-21T22:39:47.723904Z

Period
93.62 min
Inclination
97.3100°
Eccentricity
0.0008810
Mean motion
15.38162774 rev/d
Perigee alt
445.5 km
Apogee alt
457.6 km
Semi-major
6,829.7 km
B*
2.1345e-4
RAAN
324.7721°
Arg perigee
125.1874°
Mean anomaly
235.0197°
Rev number
20,677

§ Raw data

LYNK TOWER 31 55046U 23001AP  26264.94430236  .00007949  00000+0  21345-3 0  99932 55046  97.3100 324.7721 0008810 125.1874 235.0197 15.38162774206776

JSON: /api/v1/satellites/55046 · /tle

For live sub-satellite position, see the globe view (requires WebGL).

§ Visibility from observer

Set your observer location to see the next 7 days of passes ≥ 10°. The values pass through the URL so the page stays shareable.

No JS? Fill the form by hand. The geolocation button needs JavaScript.

§ Radio — SatNOGS DB

ModeDescriptionDownlinkUplink
BPSK S-band telemetry 2.260 GHz

1 transmitter · refreshed weekly from db.satnogs.org